STARLINK-36768, 67803

Orbit data source: Space-Track

STARLINK-36768, 67803 is a payload satellite owned by SpaceX/Seattle (US) in SSO that was launched on Sun, 15 Feb 2026 UTC via an FALCON 9 launch vehicle from the Air Force Western Test Range (AFWTR). Payload-class satellites include a variety of spacecraft equipped with specific instruments for various scientific and technological missions. These include communications satellites like Starlink; space stations such as the ISS; scientific satellites like the Hubble; Earth observation satellites from companies like Planet Labs, Umbra, and HawkEye 360; GPS; miniature CubeSats for education and research; and military/defense satellites.

Loading next visibility...
Identifier
67803, 2026-032G
Orbit
SSO
Country
Flag of USUS
Related business
Manufacturer
SpaceX/Seattle
Mission
Operational Commercial Communications
Bus & Motor
STARLINK V2MO, Unknown motor
Mass
575 kg wet, ~530 kg dry
Launch date (UTC)
2026-02-15 (4 months ago)
Launch vehicle
FALCON 9
Launch site
Air Force Western Test Range (AFWTR)
Object type
Payload
Rocket body
Debris
Shape & HBR
Box + 2 Pan, 17.7 m
Radar Cross Section
36.964 m², Large (>1 m²)

Expand to show TLE details & history
Last TLE update: 10 hours ago

TLE from 10 hours ago
0 STARLINK-36768
1 67803U 26032G   26171.43815949  .00018049  00000-0  55995-3 0  9995
2 67803  97.2883 359.1011 0001404  91.5687 268.5717 15.33450480 20706
Epoch: 2026-06-20T10:30Z
TLE epoch observation values (Epoch: 2026-06-20T10:30:56.979Z)
Latitude
-0.00001°
Longitude
-67.28909°
Altitude
468.663 km
Speed
7.632 km/s
True Right ascension
23h 56m 24s
True Declination
0° 00' 00"
Sunlit
Object was in daylight at epoch
Visualization orbit readout
Latitude
Unknown
Longitude
Unknown
Altitude
Unknown
Speed
Unknown
Apparent Right ascension
Unknown
Apparent Declination
Unknown
Sunlit
N/A
Visualization observer readout
Local Sidereal Time
07:15:13
Azimuth
Unknown
Elevation
Unknown
Doppler factor
Unknown
Orbital elements
Apogee altitude
463.43 km
Perigee altitude
461.509 km
Semi-major axis
6,840.607 km
Eccentricity
0.00014
Inclination
97.2883°
RAAN
359.1011°
Arg. of periapsis
91.5687°
True anomaly
268.55562°
Mean anomaly
268.5717°
Eccentric anomaly
268.56366°
Mean motion
3.8362 °/min
Orbital period
93.84 mins
BSTAR
0.00055995
Loading maneuver chart data...
Computing Atmospheric mass density...
Loading historical data...
Loading historical data...
Loading historical data...
Loading historical data...
Loading historical data...
Loading historical data...
Loading historical data...

Documentation

Showing up to 5 results
|